Simultaneous Nadir Overpasses (SNOs) Predictions

Prediction of SNOs between FY3D and AQUA Satellite Orbit:

Table of predicted SNOs for the next 14.0 days since TLE Epoch: 6/17/2023
Index Date (FY3D) Time (FY3D) Lat,Lon (FY3D) SZA (FY3D ) Date (AQUA) Time (AQUA) Lat,Lon (AQUA) SZA (AQUA ) Distance(km) Time Diff (sec)
1 06/19/2023 11:27:39 78.66, -10.89 55.88 06/19/2023 11:28:27 78.66, -10.93 55.87 0.82 48
2 06/19/2023 12:18:15 -78.30, 158.63 124.61 06/19/2023 12:17:42 -78.29, 158.66 124.61 0.90 33
3 06/22/2023 01:13:19 -78.75, -37.87 124.00 06/22/2023 01:14:04 -78.75, -37.79 124.02 1.82 45
4 06/22/2023 02:03:51 78.23, 132.64 55.29 06/22/2023 02:03:17 78.24, 132.55 55.32 2.23 34
5 06/24/2023 14:58:56 78.69, -63.86 55.96 06/24/2023 14:59:39 78.69, -63.85 55.95 0.13 43
6 06/24/2023 15:49:33 -78.37, 105.45 124.48 06/24/2023 15:48:55 -78.36, 105.56 124.49 2.84 38
7 06/27/2023 04:44:35 -78.72, -90.41 123.92 06/27/2023 04:45:14 -78.72, -90.34 123.94 1.60 39
8 06/27/2023 05:35:11 78.35, 79.20 55.58 06/27/2023 05:34:30 78.34, 79.30 55.57 2.49 41
9 06/29/2023 18:30:14 78.74,-116.92 56.24 06/29/2023 18:30:49 78.73,-116.81 56.21 2.59 35



Historial Predications of SNOs between FY3D and AQUA
